| time (UTC) | temp C | wind direction | speed KPH | gust KPH | rain 1hr cm | rain 24hr cm | rain mn cm | humidity % | barometer mb |
| 20260502210504 | 11 | 0 | 0.0 | 0.0 | 0.00 | 0.84 | 0.84 | 91 | 1010.8 |
| 20260502210004 | 11 | 0 | 0.0 | 0.0 | 0.00 | 0.84 | 0.84 | 91 | 1010.7 |
| 20260502205504 | 11 | 0 | 0.0 | 0.0 | 0.00 | 0.84 | 0.84 | 91 | 1010.7 |
| 20260502205004 | 11 | 0 | 0.0 | 0.0 | 0.00 | 0.84 | 0.84 | 91 | 1010.8 |
| 20260502204525 | 11 | 0 | 0.0 | 0.0 | 0.00 | 0.84 | 0.84 | 91 | 1010.8 |
| 20260502204004 | 11 | 0 | 0.0 | 0.0 | 0.00 | 0.84 | 0.84 | 91 | 1010.8 |
| 20260502203505 | 11 | 0 | 0.0 | 0.0 | 0.00 | 0.84 | 0.84 | 91 | 1010.9 |
| 20260502203004 | 11 | 0 | 0.0 | 0.0 | 0.00 | 0.84 | 0.84 | 91 | 1010.9 |
| 20260502202504 | 11 | 0 | 0.0 | 0.0 | 0.00 | 0.84 | 0.84 | 91 | 1010.8 |
| 20260502202004 | 11 | 0 | 0.0 | 0.0 | 0.00 | 0.84 | 0.84 | 91 | 1010.8 |
| 20260502201504 | 11 | 0 | 0.0 | 0.0 | 0.00 | 0.84 | 0.84 | 91 | 1010.9 |
| 20260502201004 | 11 | 0 | 0.0 | 0.0 | 0.00 | 0.84 | 0.84 | 91 | 1010.9 |
| 20260502200504 | 11 | 0 | 0.0 | 0.0 | 0.00 | 0.84 | 0.84 | 91 | 1010.9 |
| 20260502200025 | 11 | 0 | 0.0 | 0.0 | 0.00 | 0.84 | 0.84 | 91 | 1011.0 |
| 20260502195504 | 11 | 0 | 0.0 | 0.0 | 0.00 | 0.84 | 0.84 | 91 | 1011.0 |
| 20260502195004 | 11 | 0 | 0.0 | 0.0 | 0.00 | 0.84 | 0.84 | 91 | 1011.0 |
| 20260502194504 | 11 | 0 | 0.0 | 0.0 | 0.03 | 0.84 | 0.84 | 91 | 1011.0 |
| 20260502194025 | 11 | 0 | 0.0 | 0.0 | 0.03 | 0.84 | 0.84 | 91 | 1011.0 |
| 20260502193504 | 11 | 0 | 0.0 | 0.0 | 0.03 | 0.84 | 0.84 | 91 | 1011.0 |
| 20260502193004 | 11 | 0 | 0.0 | 0.0 | 0.03 | 0.84 | 0.84 | 91 | 1011.0 |
| 20260502192504 | 11 | 0 | 0.0 | 0.0 | 0.03 | 0.84 | 0.84 | 91 | 1011.1 |
| 20260502192004 | 11 | 0 | 0.0 | 0.0 | 0.03 | 0.84 | 0.84 | 91 | 1011.1 |
| 20260502191504 | 11 | 0 | 0.0 | 0.0 | 0.03 | 0.84 | 0.84 | 91 | 1011.1 |
| 20260502191004 | 11 | 0 | 0.0 | 0.0 | 0.05 | 0.84 | 0.84 | 90 | 1011.1 |
| 20260502190504 | 11 | 0 | 0.0 | 0.0 | 0.05 | 0.84 | 0.84 | 90 | 1011.1 |
| 20260502190004 | 11 | 0 | 0.0 | 0.0 | 0.05 | 0.84 | 0.84 | 90 | 1011.2 |
| 20260502185525 | 11 | 0 | 0.0 | 0.0 | 0.05 | 0.84 | 0.84 | 90 | 1011.1 |
| 20260502185025 | 11 | 0 | 0.0 | 0.0 | 0.05 | 0.84 | 0.84 | 90 | 1011.2 |
| 20260502184504 | 11 | 216 | 0.0 | 1.6 | 0.05 | 0.81 | 0.81 | 90 | 1011.2 |
| 20260502184004 | 11 | 216 | 0.0 | 1.6 | 0.05 | 0.81 | 0.81 | 90 | 1011.3 |
| 20260502183504 | 11 | 198 | 0.0 | 1.6 | 0.05 | 0.81 | 0.81 | 90 | 1011.3 |
| 20260502183004 | 11 | 198 | 0.0 | 3.2 | 0.05 | 0.81 | 0.81 | 90 | 1011.4 |
| 20260502182503 | 12 | 198 | 0.0 | 3.2 | 0.05 | 0.81 | 0.81 | 90 | 1011.4 |
| 20260502182004 | 12 | 0 | 0.0 | 0.0 | 0.05 | 0.81 | 0.81 | 90 | 1011.4 |
| 20260502181504 | 12 | 0 | 0.0 | 0.0 | 0.05 | 0.81 | 0.81 | 90 | 1011.4 |
| 20260502181004 | 12 | 0 | 0.0 | 0.0 | 0.05 | 0.79 | 0.79 | 89 | 1011.4 |
| 20260502180504 | 12 | 0 | 0.0 | 0.0 | 0.05 | 0.79 | 0.79 | 89 | 1011.4 |
| 20260502170503 | 12 | 0 | 0.0 | 0.0 | 0.15 | 0.74 | 0.74 | 88 | 1011.8 |
| 20260502164003 | 12 | 0 | 0.0 | 0.0 | 0.18 | 0.69 | 0.69 | 88 | 1012.1 |
| 20260502163504 | 12 | 0 | 0.0 | 0.0 | 0.18 | 0.66 | 0.66 | 88 | 1012.1 |
| 20260502163004 | 12 | 0 | 0.0 | 0.0 | 0.23 | 0.66 | 0.66 | 89 | 1012.1 |
| 20260502162504 | 12 | 0 | 0.0 | 0.0 | 0.23 | 0.66 | 0.66 | 88 | 1012.1 |
| 20260502162004 | 12 | 0 | 0.0 | 0.0 | 0.25 | 0.64 | 0.64 | 88 | 1012.1 |
| 20260502161504 | 12 | 0 | 0.0 | 0.0 | 0.25 | 0.61 | 0.61 | 88 | 1012.1 |
| 20260502161004 | 12 | 0 | 0.0 | 0.0 | 0.28 | 0.61 | 0.61 | 88 | 1012.2 |
| 20260502160503 | 12 | 0 | 0.0 | 0.0 | 0.30 | 0.61 | 0.61 | 87 | 1012.2 |
| 20260502152004 | 12 | 0 | 0.0 | 0.0 | 0.33 | 0.38 | 0.38 | 86 | 1013.0 |
| 20260502151524 | 12 | 0 | 0.0 | 0.0 | 0.33 | 0.36 | 0.36 | 86 | 1013.0 |
| 20260502151003 | 12 | 0 | 0.0 | 0.0 | 0.30 | 0.33 | 0.33 | 85 | 1013.0 |
| 20260502150524 | 12 | 0 | 0.0 | 0.0 | 0.28 | 0.30 | 0.30 | 85 | 1013.0 |
| 20260502130528 | 15 | 176 | 1.6 | 12.9 | 0.00 | 0.00 | 0.00 | 75 | 1014.0 |
| 20260502123506 | 15 | 188 | 1.6 | 9.7 | 0.00 | 0.00 | 0.00 | 75 | 1014.1 |
| 20260502123006 | 15 | 234 | 0.0 | 9.7 | 0.00 | 0.00 | 0.00 | 76 | 1014.2 |
| 20260502122527 | 15 | 262 | 0.0 | 4.8 | 0.00 | 0.00 | 0.00 | 77 | 1014.2 |
| 20260502122006 | 15 | 263 | 1.6 | 11.3 | 0.00 | 0.00 | 0.00 | 76 | 1014.3 |
| 20260502121527 | 15 | 268 | 1.6 | 11.3 | 0.00 | 0.00 | 0.00 | 76 | 1014.5 |
| 20260502121006 | 15 | 270 | 1.6 | 9.7 | 0.00 | 0.00 | 0.00 | 76 | 1014.5 |
| 20260502120506 | 15 | 271 | 1.6 | 9.7 | 0.00 | 0.00 | 0.00 | 77 | 1014.6 |
| 20260502115506 | 15 | 272 | 1.6 | 11.3 | 0.00 | 0.00 | 0.00 | 76 | 1014.8 |
| 20260502115027 | 15 | 261 | 1.6 | 9.7 | 0.00 | 0.00 | 0.00 | 76 | 1014.8 |
| 20260502114527 | 15 | 273 | 1.6 | 9.7 | 0.00 | 0.00 | 0.00 | 77 | 1014.9 |
| 20260502114006 | 15 | 283 | 1.6 | 9.7 | 0.00 | 0.00 | 0.00 | 76 | 1015.0 |
| 20260502113506 | 15 | 287 | 3.2 | 11.3 | 0.00 | 0.00 | 0.00 | 76 | 1015.1 |
| 20260502113006 | 15 | 288 | 3.2 | 11.3 | 0.00 | 0.00 | 0.00 | 75 | 1015.0 |
| 20260502112506 | 15 | 284 | 3.2 | 11.3 | 0.00 | 0.00 | 0.00 | 75 | 1015.1 |
| 20260502112027 | 15 | 284 | 3.2 | 11.3 | 0.00 | 0.00 | 0.00 | 75 | 1015.1 |
| 20260502111506 | 15 | 291 | 1.6 | 11.3 | 0.00 | 0.00 | 0.00 | 76 | 1015.2 |
| 20260502111006 | 15 | 283 | 1.6 | 8.0 | 0.00 | 0.00 | 0.00 | 75 | 1015.4 |
| 20260502110506 | 15 | 276 | 1.6 | 6.4 | 0.00 | 0.00 | 0.00 | 75 | 1015.5 |
| 20260502110006 | 15 | 291 | 0.0 | 6.4 | 0.00 | 0.00 | 0.00 | 74 | 1015.6 |
| 20260502105506 | 15 | 319 | 1.6 | 6.4 | 0.00 | 0.00 | 0.00 | 76 | 1015.6 |
| 20260502105027 | 16 | 316 | 0.0 | 6.4 | 0.00 | 0.00 | 0.00 | 74 | 1015.7 |
| 20260502104506 | 16 | 341 | 0.0 | 4.8 | 0.00 | 0.00 | 0.00 | 74 | 1015.7 |
| 20260502104027 | 16 | 341 | 0.0 | 4.8 | 0.00 | 0.00 | 0.00 | 74 | 1015.7 |
| 20260502103506 | 16 | 343 | 0.0 | 4.8 | 0.00 | 0.00 | 0.00 | 76 | 1015.8 |
| 20260502103006 | 15 | 313 | 0.0 | 4.8 | 0.00 | 0.00 | 0.00 | 76 | 1015.9 |
| 20260502102527 | 15 | 269 | 1.6 | 4.8 | 0.00 | 0.00 | 0.00 | 76 | 1015.9 |
| 20260502102006 | 15 | 241 | 0.0 | 4.8 | 0.00 | 0.00 | 0.00 | 76 | 1015.9 |
| 20260502101506 | 15 | 233 | 0.0 | 6.4 | 0.00 | 0.00 | 0.00 | 77 | 1016.0 |
| 20260502101006 | 15 | 163 | 1.6 | 11.3 | 0.00 | 0.00 | 0.00 | 76 | 1016.0 |
| 20260502100506 | 15 | 157 | 1.6 | 11.3 | 0.00 | 0.00 | 0.00 | 76 | 1016.0 |
| 20260502091506 | 15 | 343 | 0.0 | 6.4 | 0.00 | 0.00 | 0.00 | 78 | 1016.4 |
| 20260502091006 | 15 | 129 | 0.0 | 12.9 | 0.00 | 0.00 | 0.00 | 79 | 1016.3 |
| 20260502090506 | 14 | 141 | 0.0 | 12.9 | 0.00 | 0.00 | 0.00 | 80 | 1016.3 |
| 20260502071506 | 11 | 122 | 1.6 | 9.7 | 0.00 | 0.20 | 0.00 | 88 | 1017.2 |
| 20260502071006 | 11 | 130 | 1.6 | 9.7 | 0.00 | 0.20 | 0.00 | 88 | 1017.2 |
| 20260502070505 | 11 | 140 | 1.6 | 9.7 | 0.00 | 0.20 | 0.00 | 89 | 1017.2 |
| 20260502070005 | 11 | 148 | 0.0 | 6.4 | 0.00 | 0.20 | 0.00 | 89 | 1017.2 |
| 20260502065505 | 11 | 123 | 0.0 | 4.8 | 0.00 | 0.20 | 0.00 | 89 | 1017.2 |
| 20260502065027 | 10 | 121 | 0.0 | 3.2 | 0.00 | 0.20 | 0.00 | 89 | 1017.2 |
| 20260502064505 | 10 | 133 | 0.0 | 3.2 | 0.00 | 0.20 | 0.00 | 89 | 1017.2 |
| 20260502064006 | 10 | 136 | 0.0 | 6.4 | 0.00 | 0.20 | 0.00 | 89 | 1017.3 |
| 20260502063505 | 10 | 135 | 0.0 | 6.4 | 0.00 | 0.23 | 0.00 | 89 | 1017.2 |
| 20260502063005 | 10 | 0 | 0.0 | 0.0 | 0.00 | 0.23 | 0.00 | 89 | 1017.3 |
| 20260502062506 | 10 | 109 | 0.0 | 3.2 | 0.00 | 0.23 | 0.00 | 89 | 1017.3 |
| 20260502062006 | 10 | 111 | 0.0 | 6.4 | 0.00 | 0.23 | 0.00 | 89 | 1017.3 |
| 20260502061505 | 10 | 114 | 1.6 | 6.4 | 0.00 | 0.23 | 0.00 | 89 | 1017.4 |
| 20260502061005 | 10 | 117 | 0.0 | 4.8 | 0.00 | 0.23 | 0.00 | 89 | 1017.3 |
| 20260502060505 | 9 | 107 | 0.0 | 4.8 | 0.00 | 0.23 | 0.00 | 89 | 1017.4 |
| 20260502060026 | 9 | 99 | 0.0 | 4.8 | 0.00 | 0.23 | 0.00 | 88 | 1017.5 |
| 20260502055505 | 9 | 140 | 0.0 | 3.2 | 0.00 | 0.23 | 0.00 | 88 | 1017.5 |
| 20260502055005 | 10 | 140 | 0.0 | 3.2 | 0.00 | 0.23 | 0.00 | 89 | 1017.6 |
| 20260502054505 | 9 | 133 | 0.0 | 11.3 | 0.00 | 0.23 | 0.00 | 89 | 1017.6 |
| 20260502054005 | 9 | 121 | 0.0 | 11.3 | 0.00 | 0.23 | 0.00 | 89 | 1017.6 |
| 20260502053505 | 8 | 116 | 0.0 | 6.4 | 0.00 | 0.23 | 0.00 | 89 | 1017.6 |
| 20260502053005 | 8 | 116 | 1.6 | 8.0 | 0.00 | 0.23 | 0.00 | 89 | 1017.6 |
| 20260502052505 | 8 | 117 | 1.6 | 8.0 | 0.00 | 0.23 | 0.00 | 88 | 1017.6 |
| 20260502052005 | 8 | 106 | 0.0 | 6.4 | 0.00 | 0.23 | 0.00 | 88 | 1017.7 |
| 20260502051505 | 8 | 92 | 0.0 | 6.4 | 0.00 | 0.23 | 0.00 | 88 | 1017.7 |
| 20260502051005 | 8 | 90 | 0.0 | 4.8 | 0.00 | 0.23 | 0.00 | 88 | 1017.7 |
| 20260502050505 | 8 | 154 | 0.0 | 1.6 | 0.00 | 0.23 | 0.00 | 88 | 1017.7 |
| 20260502050005 | 8 | 154 | 0.0 | 1.6 | 0.00 | 0.23 | 0.00 | 88 | 1017.7 |
| 20260502045505 | 8 | 0 | 0.0 | 0.0 | 0.00 | 0.23 | 0.00 | 87 | 1017.6 |
| 20260502045005 | 8 | 0 | 0.0 | 0.0 | 0.00 | 0.23 | 0.00 | 87 | 1017.7 |
| 20260502044505 | 8 | 0 | 0.0 | 0.0 | 0.00 | 0.23 | 0.00 | 87 | 1017.6 |
| 20260502044005 | 8 | 155 | 0.0 | 1.6 | 0.00 | 0.23 | 0.00 | 88 | 1017.6 |
| 20260502043505 | 8 | 155 | 0.0 | 1.6 | 0.00 | 0.23 | 0.00 | 88 | 1017.6 |
| 20260502043005 | 8 | 154 | 0.0 | 8.0 | 0.00 | 0.23 | 0.00 | 87 | 1017.6 |
| 20260502042505 | 8 | 157 | 1.6 | 8.0 | 0.00 | 0.23 | 0.00 | 87 | 1017.6 |
| 20260502042005 | 8 | 152 | 1.6 | 8.0 | 0.00 | 0.23 | 0.00 | 87 | 1017.5 |
| 20260502041505 | 8 | 148 | 0.0 | 8.0 | 0.00 | 0.23 | 0.00 | 87 | 1017.4 |
| 20260502041005 | 8 | 0 | 0.0 | 0.0 | 0.00 | 0.23 | 0.00 | 87 | 1017.4 |
| 20260502040505 | 8 | 162 | 0.0 | 1.6 | 0.00 | 0.23 | 0.00 | 87 | 1017.5 |
| 20260502040005 | 8 | 162 | 0.0 | 1.6 | 0.00 | 0.23 | 0.00 | 87 | 1017.6 |
| 20260502035505 | 8 | 0 | 0.0 | 0.0 | 0.00 | 0.23 | 0.00 | 87 | 1017.7 |
| 20260502035005 | 8 | 0 | 0.0 | 0.0 | 0.00 | 0.23 | 0.00 | 87 | 1017.7 |
| 20260502034505 | 8 | 0 | 0.0 | 0.0 | 0.00 | 0.23 | 0.00 | 87 | 1017.7 |
| 20260502034005 | 8 | 0 | 0.0 | 0.0 | 0.00 | 0.23 | 0.00 | 87 | 1017.8 |
| 20260502033505 | 8 | 0 | 0.0 | 0.0 | 0.00 | 0.23 | 0.00 | 87 | 1017.8 |
| 20260502033005 | 8 | 0 | 0.0 | 0.0 | 0.00 | 0.23 | 0.00 | 87 | 1017.9 |
| 20260502032526 | 8 | 0 | 0.0 | 0.0 | 0.00 | 0.23 | 0.00 | 87 | 1017.9 |
| 20260502032005 | 8 | 0 | 0.0 | 0.0 | 0.00 | 0.23 | 0.00 | 87 | 1018.0 |
| 20260502031505 | 8 | 0 | 0.0 | 0.0 | 0.00 | 0.23 | 0.00 | 87 | 1018.0 |
| 20260502031026 | 8 | 0 | 0.0 | 0.0 | 0.00 | 0.23 | 0.00 | 86 | 1018.0 |
| 20260502030505 | 9 | 0 | 0.0 | 0.0 | 0.00 | 0.23 | 0.00 | 86 | 1018.1 |
| 20260502030005 | 9 | 0 | 0.0 | 0.0 | 0.00 | 0.23 | 0.00 | 86 | 1018.1 |
| 20260502025526 | 9 | 0 | 0.0 | 0.0 | 0.00 | 0.23 | 0.00 | 86 | 1018.2 |
| 20260502025005 | 9 | 0 | 0.0 | 0.0 | 0.00 | 0.23 | 0.00 | 86 | 1018.2 |
| 20260502024505 | 9 | 0 | 0.0 | 0.0 | 0.00 | 0.23 | 0.00 | 86 | 1018.3 |
| 20260502024005 | 9 | 0 | 0.0 | 0.0 | 0.00 | 0.23 | 0.00 | 86 | 1018.4 |
| 20260502023505 | 9 | 0 | 0.0 | 0.0 | 0.00 | 0.23 | 0.00 | 86 | 1018.4 |
| 20260502023005 | 9 | 0 | 0.0 | 0.0 | 0.00 | 0.23 | 0.00 | 86 | 1018.5 |
| 20260502022505 | 9 | 0 | 0.0 | 0.0 | 0.00 | 0.23 | 0.00 | 86 | 1018.5 |
| 20260502022005 | 9 | 0 | 0.0 | 0.0 | 0.00 | 0.23 | 0.00 | 86 | 1018.5 |
| 20260502021505 | 9 | 0 | 0.0 | 0.0 | 0.00 | 0.23 | 0.00 | 85 | 1018.6 |
| 20260502021005 | 10 | 0 | 0.0 | 0.0 | 0.00 | 0.23 | 0.00 | 85 | 1018.6 |
| 20260502020505 | 10 | 0 | 0.0 | 0.0 | 0.00 | 0.23 | 0.00 | 85 | 1018.7 |
| 20260502020005 | 10 | 0 | 0.0 | 0.0 | 0.00 | 0.23 | 0.00 | 85 | 1018.7 |
| 20260502015504 | 10 | 0 | 0.0 | 0.0 | 0.00 | 0.23 | 0.00 | 85 | 1018.7 |
| 20260502015026 | 10 | 0 | 0.0 | 0.0 | 0.00 | 0.23 | 0.00 | 85 | 1018.7 |
| 20260502014526 | 10 | 0 | 0.0 | 0.0 | 0.00 | 0.23 | 0.00 | 85 | 1018.8 |
| 20260502014005 | 10 | 0 | 0.0 | 0.0 | 0.00 | 0.23 | 0.00 | 85 | 1018.9 |
| 20260502013505 | 10 | 0 | 0.0 | 0.0 | 0.00 | 0.23 | 0.00 | 85 | 1019.0 |
| 20260502013005 | 10 | 0 | 0.0 | 0.0 | 0.00 | 0.23 | 0.00 | 85 | 1019.0 |
| 20260502012525 | 10 | 0 | 0.0 | 0.0 | 0.00 | 0.23 | 0.00 | 85 | 1019.0 |
| 20260502012005 | 10 | 0 | 0.0 | 0.0 | 0.00 | 0.23 | 0.00 | 85 | 1019.1 |
| 20260502011526 | 10 | 0 | 0.0 | 0.0 | 0.00 | 0.23 | 0.00 | 85 | 1019.1 |
| 20260502011005 | 10 | 0 | 0.0 | 0.0 | 0.00 | 0.23 | 0.00 | 85 | 1019.2 |
| 20260502010505 | 10 | 0 | 0.0 | 0.0 | 0.00 | 0.23 | 0.00 | 85 | 1019.2 |
| 20260502010026 | 10 | 0 | 0.0 | 0.0 | 0.00 | 0.23 | 0.00 | 85 | 1019.2 |
| 20260502005505 | 10 | 0 | 0.0 | 0.0 | 0.00 | 0.23 | 0.00 | 85 | 1019.2 |
| 20260502005005 | 10 | 0 | 0.0 | 0.0 | 0.00 | 0.23 | 0.00 | 85 | 1019.3 |
| 20260502004525 | 10 | 0 | 0.0 | 0.0 | 0.00 | 0.23 | 0.00 | 85 | 1019.4 |
| 20260502004005 | 10 | 0 | 0.0 | 0.0 | 0.00 | 0.23 | 0.00 | 85 | 1019.4 |
| 20260502003505 | 10 | 0 | 0.0 | 0.0 | 0.00 | 0.23 | 0.00 | 85 | 1019.4 |
| 20260502003004 | 10 | 0 | 0.0 | 0.0 | 0.00 | 0.23 | 0.00 | 85 | 1019.4 |
| 20260502002505 | 10 | 0 | 0.0 | 0.0 | 0.00 | 0.23 | 0.00 | 85 | 1019.4 |
| 20260502002005 | 10 | 0 | 0.0 | 0.0 | 0.00 | 0.23 | 0.00 | 85 | 1019.5 |
| 20260502001504 | 10 | 0 | 0.0 | 0.0 | 0.00 | 0.23 | 0.00 | 85 | 1019.5 |
| 20260502001005 | 10 | 0 | 0.0 | 0.0 | 0.00 | 0.23 | 0.00 | 85 | 1019.5 |
| 20260502000504 | 10 | 0 | 0.0 | 0.0 | 0.00 | 0.23 | 0.00 | 85 | 1019.5 |
| 20260502000005 | 10 | 0 | 0.0 | 0.0 | 0.00 | 0.23 | 0.00 | 85 | 1019.5 |
| 20260501235504 | 10 | 0 | 0.0 | 0.0 | 0.00 | 0.23 | 0.00 | 85 | 1019.6 |
| 20260501235004 | 10 | 0 | 0.0 | 0.0 | 0.00 | 0.23 | 0.00 | 85 | 1019.6 |
| 20260501234505 | 10 | 0 | 0.0 | 0.0 | 0.00 | 0.23 | 0.00 | 85 | 1019.6 |
| 20260501234005 | 10 | 0 | 0.0 | 0.0 | 0.00 | 0.23 | 0.00 | 85 | 1019.6 |
| 20260501233504 | 10 | 0 | 0.0 | 0.0 | 0.00 | 0.23 | 0.00 | 85 | 1019.6 |
| 20260501233025 | 10 | 0 | 0.0 | 0.0 | 0.00 | 0.23 | 0.00 | 85 | 1019.6 |
| 20260501232504 | 10 | 150 | 0.0 | 3.2 | 0.00 | 0.23 | 0.00 | 85 | 1019.6 |
| 20260501232025 | 10 | 150 | 0.0 | 3.2 | 0.00 | 0.23 | 0.00 | 85 | 1019.7 |
| 20260501231504 | 10 | 0 | 0.0 | 8.0 | 0.00 | 0.23 | 0.00 | 85 | 1019.7 |
| 20260501231025 | 10 | 150 | 0.0 | 8.0 | 0.00 | 0.23 | 0.00 | 85 | 1019.7 |
| 20260501230526 | 10 | 155 | 1.6 | 8.0 | 0.00 | 0.23 | 0.00 | 85 | 1019.7 |
| 20260501230028 | 10 | 156 | 1.6 | 8.0 | 0.00 | 0.23 | 0.00 | 85 | 1019.8 |
| 20260501225526 | 10 | 164 | 0.0 | 6.4 | 0.00 | 0.23 | 0.23 | 84 | 1019.8 |
| 20260501225025 | 10 | 0 | 0.0 | 0.0 | 0.00 | 0.23 | 0.23 | 84 | 1019.9 |
| 20260501224505 | 10 | 0 | 0.0 | 0.0 | 0.00 | 0.23 | 0.23 | 85 | 1020.0 |
| 20260501224004 | 10 | 164 | 0.0 | 1.6 | 0.00 | 0.23 | 0.23 | 85 | 1020.0 |
| 20260501223504 | 10 | 164 | 0.0 | 1.6 | 0.00 | 0.23 | 0.23 | 84 | 1020.1 |
| 20260501223025 | 10 | 163 | 0.0 | 1.6 | 0.00 | 0.23 | 0.23 | 84 | 1020.1 |
| 20260501222504 | 10 | 163 | 0.0 | 1.6 | 0.00 | 0.23 | 0.23 | 84 | 1020.1 |
| 20260501222004 | 10 | 0 | 0.0 | 0.0 | 0.00 | 0.23 | 0.23 | 84 | 1020.1 |
| 20260501221504 | 11 | 0 | 0.0 | 0.0 | 0.00 | 0.23 | 0.23 | 84 | 1020.1 |
| 20260501221004 | 11 | 0 | 0.0 | 0.0 | 0.00 | 0.23 | 0.23 | 84 | 1020.2 |
| 20260501220504 | 11 | 0 | 0.0 | 0.0 | 0.00 | 0.23 | 0.23 | 84 | 1020.1 |
| 20260501220005 | 11 | 0 | 0.0 | 0.0 | 0.00 | 0.23 | 0.23 | 84 | 1020.2 |
| 20260501215504 | 11 | 0 | 0.0 | 0.0 | 0.00 | 0.23 | 0.23 | 84 | 1020.2 |
| 20260501215025 | 11 | 0 | 0.0 | 0.0 | 0.00 | 0.23 | 0.23 | 84 | 1020.2 |
| 20260501214504 | 11 | 0 | 0.0 | 0.0 | 0.00 | 0.23 | 0.23 | 84 | 1020.2 |
| 20260501214025 | 11 | 0 | 0.0 | 0.0 | 0.00 | 0.23 | 0.23 | 84 | 1020.2 |
| 20260501213504 | 11 | 0 | 0.0 | 0.0 | 0.00 | 0.23 | 0.23 | 84 | 1020.2 |
| 20260501213005 | 11 | 164 | 0.0 | 1.6 | 0.00 | 0.23 | 0.23 | 84 | 1020.2 |
| 20260501212525 | 11 | 164 | 0.0 | 1.6 | 0.00 | 0.23 | 0.23 | 83 | 1020.1 |
| 20260501212004 | 11 | 0 | 0.0 | 0.0 | 0.00 | 0.23 | 0.23 | 84 | 1020.1 |
| 20260501211504 | 11 | 0 | 0.0 | 0.0 | 0.00 | 0.23 | 0.23 | 84 | 1020.1 |
| 20260501211005 | 11 | 0 | 0.0 | 0.0 | 0.00 | 0.23 | 0.23 | 84 | 1020.1 |